RH
79 78 78 80 83 85 86 88 89 88 90 91 89 88 88 88 89 88 89 86 81 80 79 79 77 75 74 70 67 69 69 64 63 62 62 61 59 60 58 54 51 49 48 45 40 39 36 33 30 28 32 37 38 38 38 39 41 41 43 46 48 49 48 49 51 52 54 54 53 53 54 55 54 53 52 48 44 44 44 44 41 35 33 34 34 32 34 37 39 41 44 46 48 53 57 58 57
81 79 80 84 86 89 92 94 95 93 93 92 89 87 87 86 86 85 85 82 79 78 76 77 76 76 73 68 66 67 68 67 65 61 62 60 57 59 56 52 49 46 45 41 40 38 35 32 29 29 34 37 37 38 39 40 41 43 44 46 48 48 48 50 52 52 54 54 52 53 57 57 54 50 47 47 45 45 45 43 39 34 35 35 35 36 39 42 45 46 48 50 52 56 59 59 58
82 82 83 88 89 93 95 94 96 94 92 90 86 84 84 82 83 81 80 79 78 76 76 77 75 74 71 67 66 66 66 67 65 62 64 60 56 57 55 52 47 44 43 40 38 37 35 31 28 30 34 36 36 37 40 42 43 44 45 47 48 48 49 51 52 53 53 53 52 53 57 55 53 49 47 48 48 47 47 45 40 35 36 38 38 40 43 45 47 49 50 52 53 56 59 59 58
83 84 84 90 91 94 95 94 94 92 90 87 85 83 81 80 79 79 77 76 76 75 75 73 73 73 69 66 67 66 65 68 66 61 63 61 55 54 53 51 48 43 41 38 36 35 34 30 28 31 35 37 38 40 43 44 44 44 45 46 47 48 51 53 53 53 52 53 52 52 54 53 52 50 49 50 49 48 48 48 44 38 36 38 40 43 46 48 49 50 53 54 55 58 60 61 61
82 84 86 92 93 93 94 94 93 92 89 86 84 81 79 78 77 76 74 74 74 73 72 69 70 71 69 70 70 67 66 68 65 60 61 60 54 51 51 51 48 44 39 37 36 35 33 29 29 32 35 38 40 43 45 45 44 44 46 47 46 48 51 54 54 53 52 52 51 51 53 53 53 52 52 52 52 50 50 50 48 44 40 40 42 44 46 48 50 52 54 55 57 60 61 62 64
81 84 89 93 94 93 95 92 90 89 85 82 82 79 77 76 75 74 73 73 74 72 71 69 69 68 68 71 72 71 69 66 63 59 58 55 51 50 49 48 46 42 38 35 35 33 30 28 30 33 35 40 42 44 46 44 44 44 47 48 48 49 51 54 52 52 52 53 53 51 51 52 54 54 54 54 54 52 53 54 51 50 47 44 43 43 45 47 49 52 54 56 58 60 60 61 63
82 86 90 93 93 94 93 87 84 84 80 78 77 76 74 74 75 74 72 73 73 73 72 70 68 66 68 70 70 73 70 65 60 57 55 53 50 48 48 46 43 41 37 33 33 32 28 28 31 33 36 41 42 43 44 43 44 46 48 48 48 50 51 51 51 51 52 53 53 52 51 52 53 54 54 54 55 54 55 57 54 53 52 48 44 43 44 46 50 53 54 56 56 58 59 59 61
85 87 89 91 93 91 89 83 81 81 78 75 74 74 73 73 73 71 70 70 70 70 69 69 69 66 69 68 68 71 69 64 58 53 52 52 49 45 46 44 40 39 36 33 32 29 27 29 31 34 38 41 42 42 43 43 47 49 49 48 47 48 47 48 49 51 52 52 53 52 51 51 50 51 53 55 55 55 56 57 55 54 53 49 47 45 44 45 50 53 55 55 56 58 59 60 62
87 88 89 90 90 88 85 81 79 78 77 74 74 75 74 73 72 71 70 69 69 68 67 69 68 67 69 69 68 70 69 64 55 51 50 50 48 43 43 41 38 38 36 33 30 28 28 31 32 35 38 42 44 42 42 45 48 49 48 47 46 46 46 47 48 51 52 52 52 52 52 51 50 50 52 54 54 54 55 55 55 54 52 50 49 46 43 43 48 53 57 57 57 58 60 60 62
88 90 93 90 86 86 83 80 78 77 76 74 74 75 74 72 72 72 70 69 68 67 69 70 68 67 69 69 68 69 68 63 54 51 50 48 45 42 40 38 36 36 35 32 29 28 30 33 34 35 38 43 45 42 42 44 47 48 47 45 45 46 46 47 48 49 50 51 50 51 52 52 51 51 51 52 53 52 52 53 52 51 51 51 50 48 43 43 46 53 58 58 56 56 60 62 61
88 89 91 88 85 84 81 78 76 75 74 75 76 76 75 74 73 72 72 70 68 68 69 70 69 68 69 69 69 69 67 62 55 52 48 46 42 39 38 37 35 34 33 30 27 27 31 35 34 34 37 43 44 42 42 43 46 47 47 46 46 47 48 48 47 48 49 51 50 50 51 51 51 50 51 51 51 49 49 50 50 50 50 52 52 50 46 44 43 47 52 54 54 54 57 59 59
86 86 85 84 83 82 79 78 77 74 74 75 76 76 75 75 73 73 72 70 69 67 68 69 68 68 67 68 70 69 68 61 55 52 48 43 41 38 37 36 36 35 33 30 26 27 33 36 35 34 38 43 44 43 43 45 48 48 47 47 46 47 48 48 48 48 48 50 50 50 50 50 50 50 49 48 48 47 48 48 49 49 48 49 51 51 50 47 44 44 49 53 55 56 56 57 59
86 85 82 81 81 80 78 78 77 74 74 74 75 75 74 73 72 71 70 70 69 67 68 70 69 68 66 68 70 68 67 63 55 52 48 42 40 37 36 36 36 36 33 29 26 28 34 36 35 34 37 43 45 44 45 47 48 48 48 46 45 45 45 46 47 48 47 46 47 47 48 48 48 47 46 45 45 45 45 46 46 45 45 47 49 50 49 48 46 45 47 51 55 57 59 59 59
87 86 82 81 79 78 77 76 76 75 73 72 74 75 74 71 69 67 68 68 67 67 68 70 69 68 68 69 69 66 66 63 56 53 48 43 40 38 37 37 36 36 32 28 27 28 35 37 36 35 36 42 45 45 48 48 46 45 44 42 42 42 42 44 45 45 45 45 44 44 44 44 43 43 44 42 42 42 43 46 44 42 43 43 45 46 45 44 44 44 46 50 52 55 59 59 60
87 86 81 80 78 77 76 75 75 74 72 70 73 75 73 72 68 66 66 67 67 67 67 68 67 65 67 68 68 65 66 64 58 55 50 44 42 39 38 38 36 35 32 28 27 29 35 37 36 35 35 40 44 45 48 48 45 41 40 40 40 41 41 42 42 43 43 44 43 43 42 41 41 42 44 42 40 41 41 43 41 39 39 40 41 42 42 43 45 47 49 50 51 54 56 60 62
85 86 83 81 78 76 75 73 73 73 70 70 74 74 72 71 68 67 68 68 69 67 65 66 65 62 62 64 66 67 67 65 59 56 51 45 43 42 39 38 37 36 33 29 27 30 35 37 36 35 35 40 43 45 45 44 42 39 38 38 40 41 41 40 41 40 41 41 41 42 42 43 43 42 43 41 38 38 37 38 38 38 39 39 41 43 45 48 49 51 53 53 54 55 55 57 60
84 85 84 80 77 76 74 71 71 71 69 71 74 72 68 67 66 67 69 67 68 67 65 64 63 60 59 59 62 67 69 65 60 57 52 48 46 45 42 40 39 37 33 29 28 31 35 36 35 35 37 39 42 43 42 41 40 39 38 39 40 41 41 40 40 39 40 41 42 43 42 42 42 40 40 39 37 38 38 39 41 41 41 40 40 42 45 48 51 53 56 57 57 56 55 54 53
81 81 80 76 75 74 72 70 69 69 69 72 74 71 67 65 65 65 67 66 65 66 65 64 62 59 57 57 60 65 68 64 60 58 55 51 48 46 43 41 40 36 33 32 30 30 34 35 34 35 36 38 40 41 41 41 40 39 39 39 39 40 39 39 39 40 41 41 42 41 40 40 40 38 38 40 41 42 43 44 43 44 44 43 42 41 42 44 47 50 53 56 57 56 55 53 50
75 76 74 73 73 72 70 71 70 68 69 72 72 70 67 64 65 64 65 64 63 63 62 62 62 59 58 57 58 61 64 62 60 58 55 52 48 45 42 41 41 36 32 34 31 29 32 34 32 33 35 38 40 40 39 39 38 38 38 37 38 38 38 37 37 39 41 41 40 38 37 38 37 37 38 41 44 44 43 44 43 45 45 45 45 45 44 44 45 46 48 49 51 52 53 52 50
70 72 72 72 72 71 71 72 71 69 69 71 72 69 66 63 64 64 65 65 61 60 59 59 58 58 58 57 57 58 59 59 59 58 56 53 47 44 41 40 40 34 31 32 31 28 28 31 31 31 34 39 40 38 37 36 36 36 35 36 36 37 37 36 36 36 37 37 35 33 33 34 34 36 39 41 44 45 44 43 44 46 47 46 47 48 48 47 47 48 48 48 49 50 51 51 51
64 69 69 69 71 72 71 71 70 69 69 70 70 68 64 63 63 64 64 63 58 55 56 57 56 55 56 56 55 56 56 56 57 57 55 53 47 44 41 40 37 32 31 31 31 26 23 27 29 30 33 37 38 35 35 35 35 35 34 35 35 35 36 35 35 34 34 33 31 31 32 33 35 38 41 43 44 44 43 42 43 45 47 48 49 50 50 49 49 50 50 51 52 53 52 51 50
59 63 66 67 69 72 70 70 69 69 68 67 68 67 64 63 63 61 60 60 57 55 56 56 56 56 55 56 55 54 55 54 54 54 54 52 47 42 39 37 35 32 32 31 30 24 21 24 26 29 33 35 35 33 34 36 35 34 33 34 34 34 34 34 34 34 33 33 33 33 34 35 38 40 41 42 42 41 40 40 40 41 44 46 48 50 52 51 50 50 50 51 52 53 54 52 50
57 59 65 66 67 71 71 69 70 69 67 65 68 68 67 66 64 62 61 61 59 57 59 58 55 54 55 58 57 53 54 55 53 53 52 51 46 41 37 35 34 32 30 29 28 22 20 22 24 28 32 33 34 33 33 34 32 32 32 33 32 33 33 33 33 34 35 36 36 36 36 37 38 39 39 39 39 38 38 38 38 39 40 42 44 49 54 55 53 48 47 50 51 52 53 52 50
54 57 63 65 65 68 69 67 66 67 67 66 69 69 67 66 66 65 65 65 63 60 58 57 53 53 54 56 59 55 54 55 54 53 51 49 44 38 34 32 32 29 28 28 25 20 19 21 23 28 31 31 32 32 32 30 28 29 30 31 31 31 32 33 33 35 36 37 37 37 39 39 38 38 38 38 37 37 38 39 40 39 40 40 41 46 52 57 56 49 47 49 51 52 52 52 51
51 55 62 64 64 65 66 65 63 65 67 67 68 67 65 65 66 65 65 65 65 62 55 53 53 53 53 53 56 56 55 56 55 53 51 50 47 40 35 33 31 28 26 25 21 18 18 20 23 27 29 29 29 29 30 28 27 28 30 31 30 30 32 33 35 36 36 36 37 38 40 41 39 38 38 39 38 39 40 41 43 42 42 43 44 50 56 58 56 53 51 51 51 53 53 53 53
48 51 60 63 62 63 64 63 62 62 64 65 65 66 64 64 64 63 63 63 66 64 56 52 51 50 51 50 52 53 52 54 55 53 50 49 47 42 36 32 30 27 25 23 19 18 18 19 22 25 27 28 28 28 28 27 26 28 31 32 31 32 34 35 35 36 36 36 37 38 39 40 40 40 40 41 42 43 44 44 45 46 48 48 49 56 62 61 56 55 54 52 51 51 51 52 52
45 48 56 60 60 60 60 60 60 60 62 63 64 64 63 63 63 61 61 62 65 66 60 52 48 47 49 48 49 49 49 52 53 52 50 48 46 42 36 31 28 26 24 23 19 17 18 19 21 23 24 26 26 27 27 27 26 27 30 33 34 34 35 36 36 36 36 37 37 37 39 40 41 42 43 44 46 46 46 47 49 50 51 49 51 58 64 62 57 54 55 53 52 49 48 50 50
45 45 52 55 54 55 55 55 57 59 61 62 63 63 63 63 62 59 60 62 64 66 62 54 49 48 48 48 48 49 48 50 52 51 47 46 45 42 36 30 26 25 24 21 18 17 18 19 20 22 23 24 25 26 27 27 25 26 27 31 34 36 36 36 37 36 37 37 37 37 39 41 42 43 44 45 47 48 48 49 50 51 49 49 53 58 60 57 52 51 52 52 51 48 48 49 49
44 44 49 52 51 51 52 52 54 56 58 60 61 63 63 60 58 58 60 62 63 64 61 56 52 49 48 47 48 48 47 49 51 49 45 43 42 39 34 29 25 24 23 20 18 17 17 19 20 21 22 23 24 25 27 27 26 26 25 28 32 36 37 37 37 37 37 38 38 38 40 42 43 44 45 47 47 48 49 49 48 48 47 49 52 56 56 53 50 50 50 48 46 45 46 49 49
40 41 45 50 50 50 50 50 52 52 52 55 59 64 63 57 56 57 60 61 62 61 58 57 54 50 49 47 47 47 46 47 47 46 44 41 40 38 35 31 26 24 23 21 18 17 17 18 19 21 21 22 23 24 25 26 27 26 26 26 29 33 36 37 37 38 38 38 40 40 41 41 42 44 46 47 48 49 49 48 47 45 47 49 52 58 58 53 51 49 48 44 42 42 43 47 50
36 38 40 44 46 47 49 49 49 50 50 51 57 64 60 54 56 58 59 59 61 61 59 58 57 53 50 48 47 46 45 45 44 44 43 41 39 39 37 33 28 25 23 20 18 17 17 17 18 20 20 21 22 22 23 24 26 26 25 25 27 29 32 34 36 37 39 40 41 42 42 41 42 44 46 47 48 48 48 48 46 46 48 50 53 57 57 53 50 47 45 42 42 42 41 43 46
31 34 37 38 40 44 47 47 47 48 49 49 54 61 58 54 56 57 58 59 60 61 60 61 60 57 54 49 47 46 45 44 44 45 43 41 40 38 38 34 30 27 24 21 19 18 16 17 17 18 19 20 20 21 22 22 23 24 24 24 25 26 29 31 34 37 39 40 41 43 43 41 43 44 45 47 47 48 49 47 47 48 50 52 55 56 54 53 50 47 44 42 43 44 45 46 45
27 29 34 36 37 43 46 44 45 46 47 48 50 55 55 54 56 58 58 59 59 59 61 63 62 60 57 54 49 45 45 44 43 45 45 42 40 38 37 35 31 28 25 22 20 18 17 16 16 17 18 19 20 20 21 21 22 23 23 23 23 24 26 29 32 34 37 39 41 43 43 42 43 45 46 47 47 48 49 48 48 49 49 51 55 55 54 54 51 46 43 42 42 43 46 48 44
27 26 29 33 35 40 43 43 43 44 44 46 48 50 51 53 56 58 60 59 58 57 59 62 63 61 58 56 53 48 45 44 42 43 43 42 39 38 36 35 33 30 27 23 21 19 17 16 16 17 17 19 20 20 20 21 21 22 21 22 22 23 25 27 30 32 34 37 39 41 42 42 42 45 46 46 46 47 50 50 48 47 49 50 52 54 55 57 54 48 44 43 43 43 43 42 39
26 26 26 30 34 36 39 42 43 42 43 44 46 48 50 53 56 59 60 59 58 56 57 60 63 62 60 56 55 51 46 43 42 40 40 40 40 38 36 35 34 32 30 26 22 21 19 17 16 16 17 18 19 20 20 21 21 21 21 21 21 23 24 25 28 30 31 33 35 37 38 40 41 42 44 44 45 46 48 49 48 47 49 49 49 51 54 58 57 52 48 46 45 44 43 41 39
24 25 26 29 32 34 36 39 41 41 42 43 42 43 46 51 55 57 59 60 58 57 56 59 62 64 62 58 56 54 48 43 42 41 39 39 40 38 36 35 33 33 32 29 25 23 21 19 17 16 16 17 18 19 19 20 20 20 20 20 21 22 23 24 27 29 30 30 32 34 35 37 38 39 40 41 42 44 46 48 49 49 49 48 47 48 52 56 56 52 48 47 46 45 45 44 42
23 26 29 30 31 33 34 37 40 40 40 40 39 40 42 46 53 55 57 59 58 57 57 59 62 64 62 59 57 55 51 45 43 43 41 39 39 39 38 36 34 33 33 30 27 25 23 22 19 17 16 17 17 17 18 18 18 18 19 19 20 22 24 26 27 29 30 31 32 33 34 34 35 36 37 36 38 41 44 48 49 49 48 47 47 48 49 51 50 48 47 47 47 46 46 45 44
24 28 31 33 32 32 33 35 39 39 39 39 39 38 40 43 50 54 54 56 56 56 57 59 61 64 63 61 59 56 53 49 45 43 43 41 40 40 40 38 36 33 32 30 28 26 25 25 23 21 18 17 17 17 17 17 17 17 18 18 20 21 23 26 28 29 30 31 33 34 35 34 33 34 34 34 35 37 41 46 47 46 45 45 47 47 46 46 47 47 48 48 48 47 46 45 44
21 28 32 34 34 32 33 35 38 39 38 39 39 38 38 41 48 53 53 53 55 56 56 57 60 63 63 63 62 57 54 51 47 43 43 43 41 41 41 40 38 35 32 31 29 28 27 26 26 25 22 20 18 17 17 16 16 17 18 19 20 21 23 25 28 28 29 31 33 35 35 34 32 33 33 32 34 36 40 44 44 43 42 42 44 46 45 45 47 47 48 48 48 48 46 45 44
15 24 30 32 33 34 35 34 37 41 39 38 40 39 37 39 45 51 51 52 55 56 56 56 57 60 63 63 62 59 55 54 50 44 43 43 42 42 41 40 40 37 34 32 30 28 28 27 27 27 25 24 22 20 19 18 18 18 19 20 21 22 23 24 26 28 28 29 31 35 35 34 32 31 31 31 31 33 38 43 42 41 41 41 41 44 45 45 46 48 48 47 47 46 46 45 45
11 16 26 30 32 34 35 34 35 39 39 38 39 40 37 37 41 47 50 52 54 55 55 54 54 57 61 62 61 59 57 57 54 47 43 43 42 41 40 40 40 38 35 33 31 30 29 30 29 29 28 27 26 24 22 21 20 19 20 22 23 23 24 24 24 26 28 28 29 32 34 34 32 31 29 29 30 31 34 40 40 39 40 39 39 42 45 46 45 46 46 45 44 45 46 45 44
11 11 18 25 29 32 34 35 36 38 39 38 38 40 36 34 36 41 47 51 52 53 52 50 51 53 57 59 59 58 57 57 56 51 46 43 42 41 40 38 38 37 36 34 32 32 31 31 31 31 30 29 28 27 26 24 22 21 21 22 23 23 24 24 23 24 27 28 29 30 33 33 32 31 29 28 30 29 32 36 38 39 40 37 38 40 42 44 44 44 44 44 43 44 43 43 43
13 9 12 20 25 30 33 36 38 38 37 34 35 38 35 32 34 37 43 49 52 52 50 49 49 51 53 56 57 56 56 56 57 55 51 46 43 41 39 37 35 35 35 35 35 34 33 32 32 32 32 30 29 28 28 26 24 23 23 23 23 23 24 24 23 23 26 29 30 30 31 32 31 30 29 28 29 29 30 33 36 38 39 36 36 38 40 42 43 43 42 42 43 44 43 42 41
14 10 9 15 20 25 29 33 36 36 34 32 32 34 33 30 31 34 40 46 51 52 51 48 47 48 51 52 54 55 54 54 56 57 55 51 45 41 37 34 33 33 35 35 35 35 34 33 32 32 32 31 30 29 28 27 26 25 23 23 23 24 25 25 25 24 26 29 31 30 30 31 31 30 29 28 29 29 29 31 34 37 38 36 35 36 38 41 42 42 41 40 41 43 44 43 41
14 12 9 11 16 22 26 30 33 34 35 34 32 33 33 29 27 32 37 43 49 51 50 48 46 46 49 49 51 52 51 52 54 56 57 56 51 45 38 33 32 33 34 34 34 35 34 33 32 32 32 32 31 30 28 27 26 25 24 23 23 24 25 26 26 25 25 28 30 30 29 30 31 30 29 28 30 31 29 30 33 37 38 36 34 34 36 40 41 41 40 39 40 42 43 44 42
13 14 12 12 16 20 24 29 31 34 37 35 32 32 34 29 25 29 35 39 44 47 48 47 45 46 48 49 49 50 50 50 52 55 57 57 54 48 42 38 34 33 33 33 34 35 35 34 34 32 31 31 32 30 29 28 27 26 24 23 23 23 24 25 26 26 25 26 29 29 28 28 30 30 29 29 31 33 31 29 31 35 37 37 34 32 34 37 40 41 39 38 39 41 42 42 42
13 16 17 17 19 20 22 25 29 35 37 32 29 31 34 31 24 25 31 34 37 43 45 46 45 45 47 47 48 48 47 47 49 52 54 55 55 52 48 44 39 34 32 32 32 34 35 34 34 33 32 31 31 30 30 29 29 27 25 24 23 23 24 24 25 25 25 26 28 28 27 27 29 30 30 29 31 34 33 30 30 32 35 37 36 33 33 36 38 40 40 38 38 40 41 41 40
16 18 19 21 23 22 24 24 27 35 36 29 25 27 33 32 24 21 26 29 33 38 41 44 45 44 46 47 46 45 46 46 47 49 51 53 55 54 52 48 43 38 34 31 31 33 34 34 33 33 33 31 30 29 29 29 28 27 24 23 23 23 23 23 24 24 24 25 27 27 28 27 28 29 29 28 29 31 33 33 30 30 31 34 35 34 33 35 37 39 39 38 38 39 40 41 40
19 20 21 24 28 30 31 28 26 28 30 27 23 25 30 28 22 20 23 26 29 33 36 40 43 43 45 47 46 45 45 46 46 47 49 51 53 53 53 52 47 42 37 32 31 32 33 33 32 32 32 31 30 29 29 28 27 26 24 23 22 21 21 22 23 23 24 24 25 27 27 27 27 27 27 27 26 28 32 34 32 30 29 30 33 34 34 34 36 38 39 38 36 37 39 40 40
23 22 21 23 30 36 36 32 27 23 24 23 20 24 28 25 21 20 19 22 26 29 33 37 40 42 44 46 47 45 45 46 46 46 47 48 50 52 53 52 50 45 40 35 32 32 32 32 31 31 31 31 30 29 28 28 27 26 25 23 22 21 21 21 22 22 23 23 25 26 27 26 26 26 26 26 25 25 28 31 33 32 30 30 32 35 36 36 37 39 40 40 37 37 38 38 39
27 24 22 22 25 30 32 32 28 24 23 23 20 23 26 22 20 19 16 19 24 27 31 35 39 41 42 45 46 45 44 44 44 44 46 48 49 51 52 52 51 46 42 39 36 33 32 32 31 30 29 30 30 30 28 27 27 26 26 25 24 22 21 21 21 22 22 23 24 25 26 25 26 26 27 26 25 24 25 27 30 31 31 30 31 34 36 36 36 39 41 41 40 39 38 38 37
30 27 27 25 21 22 25 25 24 20 20 22 20 20 22 19 18 17 16 17 21 25 28 32 37 39 41 43 44 44 43 43 42 42 44 47 48 50 51 52 51 48 44 41 39 36 32 32 31 30 28 28 30 30 28 27 27 26 27 26 25 24 23 22 21 21 21 22 23 24 25 25 25 26 26 25 24 23 23 24 26 28 30 30 30 32 35 35 35 37 39 40 40 40 39 39 38
33 31 30 27 22 20 22 23 23 20 21 23 19 15 16 16 15 15 16 16 18 22 26 30 35 38 39 41 42 42 41 40 41 41 42 45 47 47 49 51 51 49 45 43 41 38 34 32 31 30 29 27 28 29 28 27 26 26 26 26 26 26 25 23 21 21 21 21 22 23 23 24 25 25 24 23 22 21 22 22 23 25 27 28 27 28 31 33 33 34 36 39 39 39 39 39 39
37 33 29 26 26 25 25 28 29 25 24 26 20 13 13 15 15 14 14 15 16 19 24 30 34 37 38 39 39 39 39 40 40 40 41 44 45 47 48 50 50 49 47 44 42 40 38 35 33 31 29 27 26 27 28 28 26 25 25 26 25 26 25 23 22 20 20 21 21 22 22 22 23 23 22 21 21 21 21 22 22 23 25 25 25 25 26 29 31 32 32 35 37 38 38 38 38
38 37 32 30 31 30 30 32 34 31 29 30 23 14 12 13 13 13 13 14 14 17 22 28 32 35 36 36 36 36 37 40 40 40 41 42 44 46 47 48 49 49 49 46 43 42 41 38 36 33 31 28 26 26 27 28 27 25 24 24 25 25 25 24 23 21 21 21 21 21 21 21 21 21 21 20 20 20 20 20 21 22 23 24 23 23 23 24 27 29 29 30 33 35 36 36 37
42 42 41 37 34 31 29 28 29 31 32 31 25 16 12 13 11 11 13 13 13 15 21 26 30 34 35 33 34 35 36 39 40 41 41 41 43 44 45 46 48 49 49 48 46 44 42 41 39 36 34 31 28 26 25 26 26 25 23 23 24 24 24 24 23 23 22 21 21 21 21 20 20 20 20 20 20 19 19 19 20 20 21 22 22 21 21 22 24 26 26 27 28 31 32 34 35
46 47 47 45 39 34 32 29 26 25 28 30 27 19 13 11 10 9 11 13 13 14 19 25 29 32 34 33 32 33 35 38 40 40 39 39 41 43 44 46 48 50 51 50 48 46 45 44 40 37 36 34 30 26 24 24 25 24 23 22 23 23 23 23 23 23 23 22 21 21 20 20 20 20 19 19 19 19 18 18 18 19 19 20 20 20 20 21 22 23 25 25 25 26 29 31 32
46 48 49 48 44 39 37 34 29 26 27 28 26 21 14 11 10 9 8 10 11 12 16 21 26 29 31 32 30 31 33 36 38 38 38 37 38 40 43 45 47 50 50 49 47 47 46 44 41 39 37 34 32 28 24 23 23 23 23 22 22 22 22 22 22 22 22 23 22 21 21 20 20 19 19 18 18 18 18 18 17 17 18 18 18 18 18 19 20 21 23 24 24 24 25 28 29